Regional Weather Roundup
Issued by NWS

Home | Current Version | Previous Version | Text Only | Print | Product List | Glossary Off
Versions: 1 2 3 4 5 6 7 8 9 10 11 12 13 14 15 16 17 18 19 20 21 22 23 24 25 26 27 28 29 30 31 32 33 34 35 36 37 38 39 40 41 42 43 44 45 46 47 48 49 50

000
ASUS43 KBIS 241310
RWRND

NORTH DAKOTA REGIONAL WEATHER ROUNDUP
NATIONAL WEATHER SERVICE BISMARCK ND
800 AM CDT SUN SEP 24 2017

NOTE: "FAIR" INDICATES FEW OR NO CLOUDS BELOW 12,000 FEET WITH NO
SIGNIFICANT WEATHER AND/OR OBSTRUCTIONS TO VISIBILITY.


NDZ001>003-009>011-017-241400-
NORTHWEST NORTH DAKOTA

CITY           SKY/WX    TMP DP  RH WIND       PRES   REMARKS
WILLISTON      LGT RAIN  44  42  93 N10       30.10S
MINOT          LGT RAIN  47  45  93 N13       30.03S
MINOT AFB      LGT RAIN  46  45  93 N10       30.03S
$$

NDZ018>021-031>035-040>046-241400-
SOUTHWEST NORTH DAKOTA

CITY           SKY/WX    TMP DP  RH WIND       PRES   REMARKS
BISMARCK       RAIN      49  48  97 NW9       29.97S FOG
DICKINSON      CLOUDY    43  42  97 N9        30.03R
GARRISON         N/A     46  45  96 N8        30.01S
HETTINGER ARPT CLOUDY    44  42  93 N13       30.05R
$$

NDZ004>008-012>016-024-026-027-054-241400-
NORTHEAST NORTH DAKOTA

CITY           SKY/WX    TMP DP  RH WIND       PRES   REMARKS
GRAND FORKS    LGT RAIN  52  52 100 N13       29.89F
GRND FRKS AFB  RAIN      50  50 100 N12       29.92S
DEVILS LAKE    LGT RAIN  47  46  97 N14       29.95F
$$

NDZ022-023-025-028>030-036>039-047>053-241400-
SOUTHEAST NORTH DAKOTA

CITY           SKY/WX    TMP DP  RH WIND       PRES   REMARKS
FARGO          CLOUDY    57  56  96 N7        29.85F
JAMESTOWN      LGT RAIN  49  48  97 N13       29.88F
$$





USA.gov is the U.S. government's official web portal to all federal, state and local government web resources and services.